Location: Conflandey
(47.7287°N, 6.0456°E)
Time: 03:47:08
(UTC+00:00)

Cosmos 2228 - Pass Details

Date: 24 October 2021
Orbit: 587 x 618 km, 82.5° (Epoch: 28 November)

Event Time Altitude Azimuth Distance (km) Brightness Sun altitude
Rises 18:17:54 0° 174° (S) 2,874 6.4 -18.6°
Reaches altitude 10° 18:20:08 10° 169° (S) 1,977 5.5 -19.0°
Maximum altitude 18:24:23 51° 94° (E) 784 3.1 -19.7°
Drops below altitude 10° 18:28:40 10° 19° (NNE) 1,996 5.5 -20.4°
Sets 18:30:57 0° 14° (NNE) 2,905 6.4 -20.8°
